Quincy, IL

6:54 PM CDT on April 25, 2017 (GMT -0500)
Quincy Regional-Baldwin

Weather History for KUIN - August, 2012

Change the Weather History Date:

Thursday, August 30, 2012

  Actual Average Record
Temperature  
Mean Temperature 80 °F 72 °F  
Max Temperature 95 °F 83 °F 106 °F (1947)
Min Temperature 66 °F 62 °F 46 °F (1911)
Degree Days  
Heating Degree Days 0 0  
Month to date heating degree days 0  
Since 1 June heating degree days 16  
Since 1 July heating degree days 0  
Cooling Degree Days 14 8  
Month to date cooling degree days 290  
Year to date cooling degree days 946  
Since 1 June cooling degree days 860  
Growing Degree Days 30 (Base 50)    
Moisture  
Dew Point 59 °F    
Average Humidity 51    
Maximum Humidity 81    
Minimum Humidity 26    
Precipitation  
Precipitation 0.00 in 0.11 in 2.05 in (1994)
Month to date precipitation 3.51  
Year to date precipitation 25.63  
Sea Level Pressure  
Sea Level Pressure 29.97 in    
Wind  
Wind Speed 6 mph (SSE)    
Max Wind Speed 9 mph    
Max Gust Speed -    
Visibility 10 miles    
Events      
T = Trace of Precipitation, MM = Missing Value Source: NWS Daily Summary

Daily Weather History Graph

Daily Weather History Graph

Search for Another Location

Airport or City:

Trip Planner

Search our weather history database for the weather conditions in past years. The results will help you decide how hot, cold, wet, or windy it might be!

Date:

Astronomy

Aug. 30, 2012 Rise Set
Actual Time 6:31 AM CDT 7:38 PM CDT
Civil Twilight 6:03 AM CDT 8:06 PM CDT
Nautical Twilight 5:30 AM CDT 8:39 PM CDT
Astronomical Twilight 4:55 AM CDT 9:13 PM CDT
Moon 6:53 PM CDT (8/30) 5:32 AM CDT (8/30)
Length of Visible Light 14h 02m
Length of Day
13h 07m
Waxing Gibbous, 99% of the Moon is Illuminated
Aug 30
Waxing Gibbous
Aug 31
Full
Sep 8
Last Quarter
Sep 15
New
Sep 22
First Quarter

Hourly Weather History & Observations

Time (CDT) Temp. Heat Index Dew Point Humidity Pressure Visibility Wind Dir Wind Speed Gust Speed Precip Events Conditions
12:54 AM 73.9 °F - 61.0 °F 64% 29.96 in 10.0 mi South 4.6 mph - N/A   Clear
1:54 AM 71.1 °F - 61.0 °F 70% 29.96 in 10.0 mi SSE 4.6 mph - N/A   Clear
2:54 AM 71.1 °F - 61.0 °F 70% 29.96 in 10.0 mi SSE 5.8 mph - N/A   Clear
3:54 AM 71.1 °F - 61.0 °F 70% 29.96 in 10.0 mi SSE 6.9 mph - N/A   Clear
4:54 AM 71.1 °F - 61.0 °F 70% 29.96 in 10.0 mi SSE 6.9 mph - N/A   Clear
5:54 AM 69.1 °F - 61.0 °F 75% 29.98 in 10.0 mi SSE 5.8 mph - N/A   Clear
6:54 AM 66.9 °F - 61.0 °F 81% 29.99 in 10.0 mi SE 4.6 mph - N/A   Clear
7:54 AM 72.0 °F - 63.0 °F 73% 30.00 in 10.0 mi SSE 4.6 mph - N/A   Clear
8:54 AM 78.1 °F - 61.0 °F 56% 30.01 in 10.0 mi South 6.9 mph - N/A   Clear
9:54 AM 81.0 °F 81.6 °F 60.1 °F 49% 30.02 in 10.0 mi South 9.2 mph - N/A   Clear
10:54 AM 84.9 °F 84.8 °F 60.1 °F 43% 30.01 in 10.0 mi SSE 9.2 mph - N/A   Clear
11:54 AM 88.0 °F 87.1 °F 59.0 °F 37% 30.00 in 10.0 mi South 6.9 mph - N/A   Clear
12:54 PM 91.0 °F 89.7 °F 57.0 °F 32% 29.98 in 10.0 mi South 9.2 mph - N/A   Clear
1:54 PM 91.9 °F 90.6 °F 57.0 °F 31% 29.97 in 10.0 mi SSE 8.1 mph - N/A   Clear
2:54 PM 93.9 °F 92.6 °F 57.0 °F 29% 29.94 in 10.0 mi SSW 8.1 mph - N/A   Clear
3:54 PM 93.9 °F 92.2 °F 55.9 °F 28% 29.93 in 10.0 mi SE 8.1 mph - N/A   Clear
4:54 PM 93.9 °F 91.7 °F 54.0 °F 26% 29.92 in 10.0 mi SSE 8.1 mph - N/A   Clear
5:54 PM 93.0 °F 91.4 °F 55.9 °F 29% 29.92 in 10.0 mi SSE 5.8 mph - N/A   Clear
6:54 PM 90.0 °F 88.8 °F 57.9 °F 34% 29.92 in 10.0 mi SSE 5.8 mph - N/A   Clear
7:54 PM 81.0 °F 81.6 °F 60.1 °F 49% 29.93 in 10.0 mi SSE 3.5 mph - N/A   Clear
8:54 PM 78.1 °F - 59.0 °F 52% 29.95 in 10.0 mi SSE 5.8 mph - N/A   Clear
9:54 PM 75.9 °F - 57.9 °F 54% 29.96 in 10.0 mi SE 6.9 mph - N/A   Clear
10:54 PM 75.0 °F - 57.9 °F 55% 29.97 in 10.0 mi SSE 5.8 mph - N/A   Clear
11:54 PM 77.0 °F - 57.9 °F 52% 29.97 in 10.0 mi SSE 6.9 mph - N/A   Clear